Location: Unspecified
(43.4680°N, 87.1740°E)
Time: 20:01:42
(UTC+00:00)

Cosmos 2263 - Pass Details

Date: 17 April 2021
Orbit: 829 x 867 km, 70.9° (Epoch: 11 May)

Event Time Altitude Azimuth Distance (km) Brightness Sun altitude
Rises 22:42:37 0° 202° (SSW) 3,394 6.9 -8.0°
Reaches altitude 10° 22:45:02 10° 201° (SSW) 2,468 6.2 -7.5°
Maximum altitude 22:50:43 87° 113° (ESE) 864 4.3 -6.6°
Drops below altitude 10° 22:56:30 10° 26° (NNE) 2,508 7.4 -5.6°
Sets 22:58:59 0° 26° (NNE) 3,453 8.2 -5.2°
